Weather in Popovka

Russia / Bryansk Oblast     52˚59′04″N   31˚54′50″E
temp.,
°C
wind,
m/s
gust,
m/s
humid.,
%
clouds,
%
prec.,
mm/h
press.,
hPa
HPBL,
m
15 january, fri
fri1500:00−14˚ne239372 0.0 1008115
03:00−13˚nne349375 0.0 1008180
06:00−13˚nne3593100 0.1 1007243
09:00−14˚nne459398 0.3 1008242
12:00−13˚nnw3592100 0.1 1009250
15:00−13˚nnw459198 0.2 1009369
18:00−15˚nnw4692100 0.1 1010374
21:00−16˚nnw379399 0.1 1010383
16 january, sat
sat1600:00−16˚nnw369388 0.0 1011332
03:00−16˚nnw369085 0.0 1011365
06:00−17˚nnw369067 0.0 1011331
09:00−18˚nw369267 0.0 1013249
12:00−16˚nw35860 0.0 1014403
15:00−16˚nw458530 0.0 1014561
18:00−17˚nw359297 0.0 1015283
21:00−18˚wnw369249 0.0 1016236
17 january, sun
sun1700:00−18˚nw479051 0.0 1017299
03:00−18˚wnw468875 0.0 1017266
06:00−17˚wnw359399 0.0 1016301
09:00−16˚nw359399 0.3 1017329
12:00−15˚nnw3589100 0.1 1018400
15:00−14˚nnw3487100 0.1 1018416
18:00−15˚n3492100 0.0 1019326
21:00−17˚n3593100 0.0 1019215
18 january, mon
mon1800:00−18˚nne3491100 0.0 1020245
03:00−18˚n349297 0.0 1021208
06:00−19˚nne3491100 0.0 1020236
09:00−19˚nne3491100 0.0 1021237
12:00−18˚ne2386100 0.0 1021298
15:00−16˚n2385100 0.0 1020325
18:00−17˚n2492100 0.0 1021247
21:00−17˚n129299 0.0 1021137
19 january, tue
tue1900:00−17˚nnw2391100 0.0 1021173
03:00−17˚n2391100 0.0 1021174
06:00−17˚n2393100 0.0 1021166
09:00−17˚nnw2295100 0.0 102280
12:00−15˚nnw2288100 0.0 1022238
15:00−13˚nw2388100 0.0 1022310
18:00−15˚wnw129482 0.0 102320
21:00−15˚nw129551 0.0 102420